#timestamp,LO_Frequency,Hit,StdDev 
1518278415.5,286046993.4,N
1518278435.4,286046993.0,N
1518278455.2,286046991.9,N
1518278475.0,286046990.7,N
1518278476.0,286046990.7,N
1518278495.8,286046992.5,N
1518278515.6,286046992.0,N
1518278535.5,286046993.2,N
1518278555.3,286046991.3,N
1518278575.1,286046991.0,N
1518278595.9,286046990.9,N
1518278615.7,286046990.6,N
1518278635.6,286046990.1,N
1518278655.4,286046992.8,N
1518278675.2,286046990.4,N
1518278695.1,286046992.1,N
1518278696.0,286046992.1,N
1518278715.8,286046991.9,N
1518278735.6,286046993.2,N
1518278755.5,286046989.4,N
1518278775.3,286046987.0,Y
1518278795.2,286046996.3,P
1518278815.9,286046998.0,N
1518278835.7,286046993.9,P
1518278855.6,286046993.9,Y
1518278875.4,286046999.6,P
1518278895.3,286046997.0,N
1518278915.1,286046999.4,N
1518278916.0,286046999.4,N
1518278935.8,286046999.5,N
1518278955.7,286046995.2,Y
1518278975.5,286046998.4,P
1518278995.3,286046999.4,P
1518279015.2,286047000.5,N
1518279035.0,286047000.4,N
1518279035.9,286047000.4,N
1518279055.8,286047002.3,N
1518279075.6,286047002.4,N
1518279095.4,286047002.8,N
1518279115.3,286046999.8,N
1518279135.1,286046999.7,N
1518279155.9,286047002.2,N
1518279175.7,286047001.9,N
1518279195.5,286047002.2,N
1518279215.4,286047002.5,N
1518279235.2,286046999.9,N
1518279255.1,286047001.0,N
1518279256.0,286047001.0,N
1518279275.8,286047002.8,N
1518279295.6,286047000.7,N
1518279315.5,286046999.7,N
1518279335.3,286046999.7,N
1518279355.2,286047002.6,N
1518279375.0,286047003.7,N
1518279375.9,286047003.7,N
1518279395.8,286047003.1,N
1518279415.6,286047002.9,N
1518279435.4,286047003.3,N
1518279455.3,286047002.9,N
1518279475.1,286047002.0,N
1518279495.8,286047002.6,N
1518279515.7,286046999.7,N
1518279535.5,286047000.2,N
1518279555.4,286047001.0,N
1518279575.2,286047001.6,N
1518279595.0,286047002.3,N
1518279595.9,286047002.3,N
1518279615.8,286047002.0,N
1518279635.6,286047002.8,N
1518279655.4,286047000.5,N
1518279675.3,286046999.1,N
1518279695.1,286046998.7,N
1518279715.9,286046998.4,N
1518279735.7,286047000.6,N
1518279755.5,286047000.0,N
1518279775.4,286047000.0,N
1518279795.2,286047001.0,N
1518279815.1,286047000.5,N
1518279816.0,286047000.5,N
1518279835.8,286046998.5,N
1518279855.6,286046999.5,N
1518279875.5,286046998.3,N
1518279895.3,286047001.0,N
1518279915.1,286046998.2,N
1518279935.9,286047000.3,N
1518279955.7,286047002.6,N
1518279975.6,286046998.6,N
1518279995.4,286047000.9,N
1518280015.2,286046998.4,N
1518280035.1,286046998.7,N
1518280036.0,286046998.7,N
1518280055.8,286046998.6,N
1518280075.6,286046998.9,N
1518280095.5,286046998.4,N
1518280115.3,286046996.7,N
1518280135.2,286046997.7,N
1518280155.9,286046997.7,N
1518280175.7,286046997.3,N
1518280195.6,286046998.8,N
1518280215.4,286047000.9,N
1518280235.3,286047001.8,N
1518280255.1,286046999.8,N
1518280256.0,286046999.8,N
1518280275.8,286047000.2,N
1518280295.7,286047000.4,N
1518280315.5,286047001.2,N
1518280335.3,286047001.2,N
1518280355.2,286046998.3,N
1518280375.0,286047000.8,N
1518280375.9,286047000.8,N
1518280395.8,286046999.4,N
1518280415.6,286046998.3,N
1518280435.4,286047001.1,N
1518280455.3,286047000.7,N
1518280475.1,286047000.8,N
1518280495.8,286046999.8,N
1518280515.7,286047002.8,N
1518280535.5,286047000.9,N
1518280555.4,286046996.7,N
1518280575.2,286046997.3,N
1518280595.0,286046995.8,N
1518280595.9,286046995.8,N
1518280615.8,286046993.4,Y
1518280635.6,286046994.9,P
1518280655.5,286046997.8,N
1518280675.3,286046997.2,N
1518280695.1,286046996.9,N
1518280715.9,286046998.3,N
1518280735.7,286046998.7,N
1518280755.6,286046996.7,N
1518280775.4,286046994.9,Y
1518280795.2,286046999.2,P
1518280815.1,286046998.1,N
1518280816.0,286046998.1,N
1518280835.8,286047000.3,N
1518280855.7,286046999.1,N
1518280875.5,286047000.4,N
1518280895.3,286047000.5,N
1518280915.2,286046999.8,N
1518280935.0,286046999.2,N
1518280935.9,286046999.2,N
1518280955.8,286046998.8,N
1518280975.6,286046998.7,N
1518280995.4,286047000.5,N
1518281015.3,286047002.2,N
1518281035.1,286047001.7,N
1518281055.8,286047004.1,Y
1518281075.7,286047002.3,P
1518281095.5,286047002.8,N
1518281115.4,286047002.4,N
1518281135.2,286047002.1,N
1518281155.0,286047004.3,Y
1518281155.9,286047004.3,P
1518281175.8,286046999.8,N
1518281195.6,286046999.9,N
1518281215.4,286047002.2,N
1518281235.3,286047002.7,N
1518281255.1,286047002.1,N
1518281275.9,286047000.3,N
1518281295.7,286047002.6,N
1518281315.5,286046999.9,N
1518281335.4,286047000.2,N
1518281355.2,286046998.6,N
1518281375.0,286047000.7,N
1518281376.0,286047000.7,N
1518281395.8,286046996.6,N
1518281415.6,286046997.3,N
1518281435.5,286046996.9,N
1518281455.3,286047003.6,N
1518281475.1,286047011.6,Y
1518281495.9,286047016.0,P
1518281515.7,286047015.7,N
1518281535.6,286047013.1,N
1518281555.4,286047009.3,N
1518281575.2,286047009.0,N
1518281595.1,286047010.0,N
1518281596.0,286047010.0,N
1518281615.8,286047007.7,N
1518281635.6,286047011.8,N
1518281655.5,286047009.3,N
1518281675.3,286047008.2,N
1518281695.2,286047003.4,N
1518281715.0,286047003.9,N
1518281715.9,286047003.9,N
1518281735.7,286047002.7,N
1518281755.6,286046998.6,N
1518281775.4,286046997.3,N
1518281795.3,286047000.4,N
1518281815.1,286047000.2,N
1518281816.0,286047000.2,N
1518281835.8,286046996.5,N
1518281855.7,286046993.9,N
1518281875.5,286046992.7,N
1518281895.4,286046988.9,N
1518281915.2,286046989.7,N
1518281935.0,286046987.0,N
1518281935.9,286046987.0,N
1518281955.8,286046991.1,N
1518281975.6,286046991.6,N
1518281995.4,286046988.8,N
